SCP
0 0 0 0 0 0 0 0 0 0 0 0 0 0 0 0 0 0 0 0 0 0 0 0 0 0 0 0 0 0 0 0 0 0 0 0 0 0 0 0 0 0 0
0 0 0 0 0 0 0 0 0 0 0 0 0 0 0 0 0 0 0 0 0 0 0 0 0 0 0 0 0 0 0 0 0 0 0 0 0 0 0 0 0 0 0
0 0 0 0 0 0 0 0 0 0 0 0 0 0 0 0 0 0 0 0 0 0 0 0 0 0 0 0 0 0 0 0 0 0 0 0 0 0 0 0 0 0 0
0 0 0 0 0 0 0 0 0 0 0 0 0 0 0 0 0 0 0 0 0 0 0 0 0 0 0 0 0 0 0 0 0 0 0 0 0 0 0 0 0 0 0
0 0 0 0 0 0 0 0 0 0 0 0 0 0 0 0 0 0 0 0 0 0 0 0 0 0 0 0 0 0 0 0 0 0 0 0 0 0 0 0 0 0 0
0 0 0 0 0 0 0 0 0 0 0 0 0 0 0 0 0 0 0 0 0 0 0 0 0 0 0 0 0 0 0 0 0 0 0 0 0 0 0 0 0 0 0
0 0 0 0 0 0 0 0 0 0 0 0 0 0 0 0 0 0 0 0 0 0 0 0 0 0 0 0 0 0 0 0 0 0 0 0 0 0 0 1 1 1 1
0 0 0 0 0 0 0 0 0 0 0 0 0 0 0 0 0 0 0 0 0 0 0 0 0 0 0 0 0 0 0 0 0 0 0 0 0 0 0 1 1 1 1
0 0 0 0 0 0 0 0 0 0 0 0 0 0 0 0 0 0 0 0 0 0 0 0 0 0 0 0 0 0 0 0 0 0 0 0 0 0 0 0 1 1 1
0 0 0 0 0 0 0 0 0 0 0 0 0 0 0 0 0 0 0 0 0 0 0 0 0 0 0 0 0 0 0 0 0 0 0 0 0 0 0 0 0 1 1
0 0 0 0 0 0 0 0 0 0 0 0 0 0 0 0 0 0 0 0 0 0 0 0 0 0 0 0 0 0 0 0 0 0 0 0 0 0 0 0 0 0 0
0 0 0 0 0 0 0 0 0 0 0 0 0 0 0 0 0 0 0 0 0 0 0 0 0 0 0 0 0 0 0 0 0 0 0 0 0 0 0 0 0 0 0
0 0 0 0 0 0 0 0 0 0 0 0 0 0 0 0 0 0 0 0 0 0 0 0 0 0 0 0 0 0 0 0 0 0 0 0 0 0 0 0 0 0 0
0 0 0 0 0 0 0 0 0 0 0 0 0 0 0 0 0 0 0 0 0 0 0 0 0 0 0 0 0 0 0 0 0 0 0 0 0 0 0 0 0 0 0
0 0 0 0 0 0 0 0 0 0 0 0 0 0 0 0 0 0 0 0 0 0 0 0 0 0 0 0 0 0 0 0 0 0 0 0 0 0 0 0 0 0 0
0 0 0 0 0 0 0 0 0 0 0 0 0 0 0 0 0 0 0 0 0 0 0 0 0 0 0 0 0 0 0 0 0 0 0 0 0 0 0 0 0 0 0
0 0 0 0 0 0 0 0 0 0 0 0 0 0 0 0 0 0 0 0 0 0 0 0 0 0 0 0 0 0 0 0 0 0 0 0 0 0 0 0 0 0 0
0 0 0 0 0 0 0 0 0 0 0 0 0 0 0 0 0 0 0 0 0 0 0 0 0 0 0 0 0 0 0 0 0 0 0 0 0 0 0 0 0 0 0
0 0 0 0 0 0 0 0 0 0 0 0 0 0 0 0 0 0 0 0 0 0 0 0 0 0 0 0 0 0 0 0 0 0 0 0 0 0 0 0 0 0 0
0 0 0 0 0 0 0 0 0 0 0 0 0 0 0 0 0 0 0 0 0 0 0 0 0 0 0 0 0 0 0 0 0 0 0 0 0 0 0 0 0 0 0
0 0 0 0 0 0 0 0 0 0 0 0 0 0 0 0 0 0 0 0 0 0 0 0 0 0 0 0 0 0 0 0 0 0 0 0 0 0 0 0 0 0 0
0 0 0 0 0 0 0 0 0 0 0 0 0 0 0 0 0 0 0 0 0 0 0 0 0 0 0 0 0 0 0 0 0 0 0 0 0 0 0 0 0 0 0
0 0 0 0 0 0 0 0 0 0 0 0 0 0 0 0 0 0 0 0 0 0 0 0 0 0 0 0 0 0 0 0 0 0 0 0 0 0 0 0 0 0 0
0 0 0 0 0 0 0 0 0 0 0 0 0 0 0 0 0 0 0 0 0 0 0 0 0 0 0 0 0 0 0 0 0 0 0 0 0 0 0 0 0 0 0
0 0 0 0 0 0 0 0 0 0 0 0 0 0 0 0 0 0 0 0 0 0 0 0 0 0 0 0 0 0 0 0 0 0 0 0 0 0 0 0 0 0 0
0 0 0 0 0 0 0 0 0 0 0 0 0 0 0 0 0 0 0 0 0 0 0 0 0 0 0 0 0 0 0 0 0 0 0 0 0 0 0 0 0 0 0
Wind_Speed
3 3 2 2 3 2 3 2 2 2 1 2 2 2 3 3 3 2 2 7 8 9 10 11 11 11 11 11 11 11 11 11 11 11 11 11 11 11 10 10 10 10 9
3 3 3 3 2 2 2 2 2 2 2 2 3 3 4 4 4 4 3 5 10 11 13 14 14 14 14 14 14 15 15 15 14 14 14 14 14 14 14 13 13 13 12
4 4 3 3 3 2 2 1 1 1 2 2 3 4 4 4 4 5 5 4 5 11 15 17 17 17 18 17 18 18 18 18 18 18 18 18 18 18 17 17 17 16 16
4 3 3 3 3 3 2 2 2 2 3 3 3 4 3 4 6 6 5 5 5 5 9 17 19 20 20 20 21 21 21 21 21 20 21 21 21 21 21 21 20 20 19
4 3 3 3 4 3 3 3 3 2 3 4 4 4 4 5 6 6 7 8 7 7 6 9 14 17 21 22 23 23 23 23 23 22 22 23 24 24 24 24 24 23 23
5 4 3 4 4 3 3 3 4 3 3 3 3 5 5 6 6 7 9 8 7 8 8 8 7 9 17 21 23 24 25 25 25 24 24 24 25 26 26 27 27 27 26
6 5 4 4 4 4 5 5 3 4 3 2 2 4 5 8 9 9 8 6 7 8 7 8 7 6 7 17 21 23 25 26 26 26 26 26 26 26 27 28 28 29 29
6 5 6 4 5 4 5 5 4 3 3 3 3 2 5 5 5 7 6 6 7 6 6 8 7 8 7 6 11 21 23 25 26 26 26 26 26 26 27 27 28 29 30
7 6 6 5 5 5 5 6 6 6 4 3 4 4 3 4 4 3 4 5 6 5 6 6 8 9 9 7 8 15 21 24 25 26 26 27 27 27 27 27 28 28 29
6 6 6 6 5 5 5 5 6 5 5 4 3 5 6 3 4 6 4 3 5 6 7 6 7 8 8 7 9 14 18 22 23 24 25 26 27 27 28 28 28 28 29
5 5 5 5 5 4 5 5 5 6 5 5 4 3 5 5 5 7 9 6 4 5 6 7 7 6 7 8 8 11 16 19 21 21 23 24 26 27 28 28 28 29 29
2 2 3 3 4 4 4 5 5 6 6 7 6 4 4 4 4 6 9 10 9 6 5 5 6 7 7 7 9 13 15 18 20 20 21 22 24 25 27 28 28 29 29
1 0 1 1 2 2 3 3 4 5 5 6 7 6 6 7 5 6 9 12 13 8 6 5 6 7 7 6 7 13 13 16 18 19 20 21 23 24 25 26 27 28 28
1 1 1 1 2 2 2 2 2 3 3 5 6 6 6 6 5 6 6 9 14 12 7 6 4 5 5 5 7 12 9 13 16 19 20 20 22 23 24 25 26 27 27
2 3 3 3 3 3 3 3 2 3 3 4 5 5 6 5 5 5 6 6 9 16 16 6 3 3 4 4 8 7 7 11 15 18 19 20 21 22 23 24 25 25 26
4 4 3 3 3 3 3 3 3 3 4 4 4 5 6 5 5 5 5 5 7 11 17 10 5 4 4 4 8 8 8 13 14 16 17 19 20 21 21 22 23 24 24
5 4 4 4 4 4 4 4 4 4 5 5 5 6 7 7 6 5 5 5 6 7 15 15 7 5 6 6 6 6 7 7 8 13 16 18 19 20 20 21 22 22 22
5 5 4 4 4 5 4 4 5 5 5 6 7 7 8 7 8 7 6 7 7 7 10 17 12 7 7 7 7 7 6 6 6 11 15 17 18 18 19 19 19 19 19
5 5 5 5 4 4 4 4 4 5 5 6 7 8 8 8 8 7 8 8 8 7 8 11 14 9 7 5 7 7 6 6 6 9 12 14 15 16 17 17 17 16 16
5 5 5 5 4 4 4 4 5 6 6 7 7 7 8 8 8 9 8 8 8 8 8 9 11 10 7 6 5 6 7 5 6 5 8 9 11 12 14 15 15 15 14
5 4 4 5 5 4 4 5 5 6 7 8 8 7 8 9 10 9 8 8 8 8 8 8 9 9 8 6 6 5 8 7 6 3 4 4 4 4 6 10 12 12 11
4 4 4 4 5 4 8 10 8 6 6 7 8 7 7 7 9 12 13 13 12 10 10 8 9 9 9 7 6 6 7 8 6 2 3 5 3 3 4 4 9 10 9
4 4 4 4 4 6 10 11 10 7 7 7 7 7 7 6 7 7 10 13 11 13 13 10 10 10 9 8 8 8 7 7 7 4 3 4 2 3 4 5 10 10 9
3 3 4 4 5 7 11 12 12 7 6 6 6 7 8 8 7 9 8 8 7 7 8 6 7 8 7 6 6 7 7 6 5 2 2 3 3 3 4 4 10 12 11
3 4 4 5 6 8 11 13 12 5 6 7 6 6 7 7 12 14 9 9 9 7 8 9 9 8 10 10 8 5 5 4 4 2 3 2 2 2 3 4 7 12 12
4 5 5 5 6 7 11 13 12 4 6 7 6 5 7 10 13 14 8 8 9 8 6 6 5 6 5 6 8 5 4 4 3 3 3 3 2 2 3 3 5 6 7
Wind_Direction
162 151 150 151 168 157 161 191 197 175 228 252 263 277 287 289 291 280 193 206 219 236 250 255 253 250 247 245 245 244 243 242 239 238 239 238 237 234 232 230 228 226 225
167 157 161 165 180 171 172 177 197 190 229 240 252 254 260 268 265 262 247 224 226 235 245 253 256 256 254 251 248 246 245 244 241 239 239 240 239 238 237 236 234 233 231
174 165 171 172 187 177 158 166 240 243 258 252 255 256 254 258 261 262 257 245 233 234 241 250 255 258 259 258 256 252 249 246 243 239 238 237 237 237 238 237 236 235 234
184 171 178 180 179 164 168 195 217 228 248 251 255 260 252 251 251 252 253 250 246 242 240 245 251 256 259 260 261 259 256 253 249 244 240 238 237 236 236 235 235 235 234
190 184 188 189 176 170 187 204 216 215 242 250 251 259 258 252 249 248 246 246 243 242 242 249 249 252 256 261 263 264 263 261 258 254 249 244 240 238 237 236 235 234 234
191 194 195 198 180 175 196 207 222 225 240 260 280 272 259 252 247 244 246 247 243 243 242 244 249 251 253 259 264 266 267 267 265 262 258 254 249 245 242 239 237 235 234
191 196 197 199 188 194 207 207 209 229 242 227 277 288 271 249 242 243 240 240 244 245 244 243 244 247 255 260 265 267 269 270 270 269 266 263 259 255 250 246 243 240 237
197 196 204 203 199 205 215 212 201 206 229 187 197 279 304 303 264 243 234 234 242 245 247 247 245 244 245 248 258 266 270 272 273 274 274 273 269 266 262 258 252 248 244
205 198 203 206 207 205 217 217 207 208 230 220 193 210 256 276 310 291 245 238 240 244 247 247 246 245 244 242 250 261 266 271 275 277 279 279 279 276 272 268 264 259 254
206 201 201 208 214 211 219 223 214 211 216 233 217 221 235 264 291 299 288 267 256 253 252 252 250 247 244 243 243 245 254 263 270 274 278 280 281 281 279 276 272 268 264
200 198 197 205 216 219 224 228 222 217 216 229 225 216 232 245 239 266 287 284 268 251 252 252 252 251 248 244 243 246 250 258 264 269 273 277 279 280 280 279 278 275 272
177 186 196 212 222 227 231 233 231 229 229 234 238 229 221 232 235 244 275 288 287 273 257 253 254 254 252 250 248 251 252 258 265 269 271 275 277 279 280 280 279 278 277
114 150 190 229 242 246 250 250 245 244 239 241 243 245 241 245 248 255 274 288 291 287 264 249 246 251 254 251 255 257 258 262 267 271 273 275 278 280 281 281 280 279 278
83 45 26 355 340 334 318 296 276 272 266 260 260 259 259 257 251 250 260 283 293 294 275 258 247 247 257 257 260 263 266 264 267 272 275 277 279 281 281 282 281 280 278
57 41 34 20 6 358 345 330 308 302 296 286 285 283 276 276 269 263 259 258 279 294 295 280 264 254 257 260 266 267 265 267 267 272 276 279 280 282 283 283 283 282 280
56 49 32 21 14 8 1 350 331 326 320 309 304 300 294 294 289 281 274 267 261 276 287 293 286 279 276 271 274 270 268 273 271 275 278 281 283 284 285 285 285 284 283
53 47 35 29 23 13 5 356 340 335 327 317 314 307 303 304 300 298 292 284 277 275 283 292 296 299 297 292 290 278 274 274 277 279 281 284 286 287 288 288 287 287 286
48 43 35 31 22 12 5 356 345 343 334 324 320 315 311 312 306 305 301 295 290 285 286 293 299 305 300 299 297 295 290 283 278 285 287 289 291 292 293 293 292 291 291
41 34 32 28 16 5 359 356 352 343 331 322 318 314 312 313 307 307 305 300 298 296 290 290 295 299 298 303 302 298 293 289 290 291 294 295 297 298 299 299 301 301 298
37 27 23 17 5 356 357 357 351 338 326 318 314 311 311 311 308 310 304 299 299 296 291 288 291 297 300 304 304 305 305 299 294 296 300 302 304 307 308 310 311 309 305
31 19 16 4 355 350 354 350 339 325 318 313 309 307 305 304 300 301 300 302 302 297 296 293 293 298 301 313 312 308 303 305 296 298 302 302 304 305 314 316 314 313 312
20 14 8 355 345 339 336 335 330 318 311 307 306 305 302 299 302 305 303 302 300 298 299 296 296 298 304 310 310 310 308 309 306 333 318 306 317 314 321 317 330 340 349
8 359 350 343 328 321 329 328 327 316 304 302 302 304 305 303 302 299 301 304 301 297 295 293 294 299 305 309 309 305 303 301 296 312 316 304 335 332 338 341 356 4 9
354 337 328 323 314 312 323 324 323 315 302 299 297 298 301 306 307 309 305 303 299 296 299 293 284 292 299 307 302 298 298 297 291 315 346 313 342 345 351 359 14 24 27
330 318 308 308 305 307 315 317 320 308 302 301 298 296 298 300 308 316 313 306 304 301 311 308 306 312 319 327 329 317 313 310 306 328 7 341 341 346 358 9 12 25 32
308 307 303 298 291 291 303 310 313 300 303 305 303 297 296 306 313 317 309 302 302 307 311 314 319 326 329 338 347 338 320 314 312 324 7 357 348 0 1 7 16 21 32